User: anonymous   Login
Location: Unspecified
(0.0000°N, 0.0000°E)
Time: 22:33:35
(UTC+00:00)
Language:

Vanguard 2 - Orbit

View from above orbital plane
View from above orbital plane
View from above satellite
View from above satellite

Ground track
Ground track

The orbit data is extracted from the following two-line orbital elements,

1    11U 59001A   17119.89354028 -.00000013 +00000-0 -26057-4 0  9995
2    11 032.8808 031.7122 1469676 271.4136 071.9140 11.85419080139105
Epoch (UTC): 29 April 2017 21:26:41
Eccentricity: 0.1469676
inclination: 32.8808°
perigee height: 553 km
apogee height: 2941 km
right ascension of ascending node: 31.7122°
argument of perigee: 271.4136°
revolutions per day: 11.85419080
mean anomaly at epoch: 71.9140°
orbit number at epoch: 13910

The dashed part of the orbit path shows where the satellite is in the earth's shadow,  

DLR